Time,TemperatureF,DewpointF,PressureIn,WindDirection,WindDirectionDegrees,WindSpeedMPH,WindSpeedGustMPH,Humidity,HourlyPrecipIn,Conditions,Clouds,dailyrainin,SolarRadiationWatts/m^2,SoftwareType,DateUTC
2013-07-19 00:12:00,76.6,72.0,30.09,SSE,158,0.0,-999.0,84,-99.99,,,0.00,0,weatherlink.com 1.10,2013-07-19 05:12:00,
2013-07-19 00:27:00,76.4,72.0,30.09,SSE,158,0.0,-999.0,85,-99.99,,,0.00,0,weatherlink.com 1.10,2013-07-19 05:27:00,
2013-07-19 00:42:00,76.1,71.0,30.08,SSE,158,0.0,-999.0,85,-99.99,,,0.00,0,weatherlink.com 1.10,2013-07-19 05:42:00,
2013-07-19 00:57:00,75.8,71.0,30.08,SSE,158,0.0,-999.0,86,-99.99,,,0.00,0,weatherlink.com 1.10,2013-07-19 05:57:00,
2013-07-19 01:12:00,75.5,71.0,30.08,SSE,158,0.0,-999.0,86,-99.99,,,0.00,0,weatherlink.com 1.10,2013-07-19 06:12:00,
2013-07-19 01:27:00,75.1,71.0,30.07,SSE,158,0.0,-999.0,87,-99.99,,,0.00,0,weatherlink.com 1.10,2013-07-19 06:27:00,
2013-07-19 01:42:00,74.7,71.0,30.07,SSE,158,0.0,-999.0,88,-99.99,,,0.00,0,weatherlink.com 1.10,2013-07-19 06:42:00,
2013-07-19 01:57:00,74.5,71.0,30.07,SSE,158,0.0,-999.0,88,-99.99,,,0.00,0,weatherlink.com 1.10,2013-07-19 06:57:00,
2013-07-19 02:12:00,74.4,71.0,30.07,SSE,158,0.0,-999.0,88,-99.99,,,0.00,0,weatherlink.com 1.10,2013-07-19 07:12:00,
2013-07-19 02:27:00,74.2,71.0,30.07,SSE,158,0.0,-999.0,88,-99.99,,,0.00,0,weatherlink.com 1.10,2013-07-19 07:27:00,
2013-07-19 02:42:00,74.0,70.0,30.07,SSE,158,0.0,-999.0,88,-99.99,,,0.00,0,weatherlink.com 1.10,2013-07-19 07:42:00,
2013-07-19 02:58:00,73.9,70.0,30.07,SSE,158,0.0,-999.0,88,-99.99,,,0.00,0,weatherlink.com 1.10,2013-07-19 07:58:00,
2013-07-19 03:13:00,73.7,70.0,30.06,SSE,158,0.0,-999.0,89,-99.99,,,0.00,0,weatherlink.com 1.10,2013-07-19 08:13:00,
2013-07-19 03:28:00,73.5,70.0,30.06,SSE,158,0.0,-999.0,89,-99.99,,,0.00,0,weatherlink.com 1.10,2013-07-19 08:28:00,
2013-07-19 03:43:00,73.3,70.0,30.06,SSE,158,0.0,-999.0,90,-99.99,,,0.00,0,weatherlink.com 1.10,2013-07-19 08:43:00,
2013-07-19 03:58:00,73.2,70.0,30.06,SSE,158,0.0,-999.0,90,-99.99,,,0.00,0,weatherlink.com 1.10,2013-07-19 08:58:00,
2013-07-19 04:13:00,73.0,70.0,30.05,SSE,158,0.0,-999.0,90,-99.99,,,0.00,0,weatherlink.com 1.10,2013-07-19 09:13:00,
2013-07-19 04:28:00,73.0,70.0,30.05,SSE,158,0.0,-999.0,90,-99.99,,,0.00,0,weatherlink.com 1.10,2013-07-19 09:28:00,
2013-07-19 04:43:00,72.9,70.0,30.05,SSE,158,0.0,-999.0,90,-99.99,,,0.00,0,weatherlink.com 1.10,2013-07-19 09:43:00,
2013-07-19 04:58:00,72.7,70.0,30.05,SSE,158,0.0,-999.0,90,-99.99,,,0.00,0,weatherlink.com 1.10,2013-07-19 09:58:00,
2013-07-19 05:13:00,72.4,69.0,30.05,SSE,158,0.0,-999.0,90,-99.99,,,0.00,0,weatherlink.com 1.10,2013-07-19 10:13:00,
2013-07-19 05:28:00,72.1,69.0,30.05,SSE,158,0.0,-999.0,90,-99.99,,,0.00,0,weatherlink.com 1.10,2013-07-19 10:28:00,
2013-07-19 05:43:00,71.9,69.0,30.06,SSE,158,0.0,-999.0,90,-99.99,,,0.00,0,weatherlink.com 1.10,2013-07-19 10:43:00,
2013-07-19 05:58:00,71.7,69.0,30.06,SSE,158,0.0,-999.0,90,-99.99,,,0.00,0,weatherlink.com 1.10,2013-07-19 10:58:00,
2013-07-19 06:14:00,71.5,69.0,30.06,SSE,158,0.0,-999.0,90,-99.99,,,0.00,7,weatherlink.com 1.10,2013-07-19 11:14:00,
2013-07-19 06:28:00,71.3,69.0,30.06,SSE,158,0.0,-999.0,91,-99.99,,,0.00,21,weatherlink.com 1.10,2013-07-19 11:28:00,
2013-07-19 06:43:00,71.5,69.0,30.06,SSE,158,0.0,-999.0,90,-99.99,,,0.00,30,weatherlink.com 1.10,2013-07-19 11:43:00,
2013-07-19 06:59:00,72.3,69.0,30.06,SSE,158,0.0,-999.0,90,-99.99,,,0.00,67,weatherlink.com 1.10,2013-07-19 11:59:00,
2013-07-19 07:14:00,73.2,70.0,30.07,SSE,158,0.0,-999.0,89,-99.99,,,0.00,47,weatherlink.com 1.10,2013-07-19 12:14:00,
2013-07-19 07:28:00,73.3,70.0,30.07,SSE,158,0.0,-999.0,89,-99.99,,,0.00,90,weatherlink.com 1.10,2013-07-19 12:28:00,
2013-07-19 07:43:00,74.0,71.0,30.07,SSE,158,0.0,-999.0,89,-99.99,,,0.00,186,weatherlink.com 1.10,2013-07-19 12:43:00,
2013-07-19 07:59:00,75.5,70.0,30.07,SSE,158,0.0,-999.0,84,-99.99,,,0.00,81,weatherlink.com 1.10,2013-07-19 12:59:00,
2013-07-19 08:14:00,76.1,71.0,30.07,SSE,158,0.0,-999.0,84,-99.99,,,0.00,285,weatherlink.com 1.10,2013-07-19 13:14:00,
2013-07-19 08:29:00,77.7,71.0,30.07,SSE,158,0.0,-999.0,79,-99.99,,,0.00,329,weatherlink.com 1.10,2013-07-19 13:29:00,
2013-07-19 08:44:00,79.5,71.0,30.07,SSE,158,0.0,-999.0,76,-99.99,,,0.00,364,weatherlink.com 1.10,2013-07-19 13:44:00,
2013-07-19 08:58:00,81.0,71.0,30.07,SSE,158,0.0,-999.0,71,-99.99,,,0.00,404,weatherlink.com 1.10,2013-07-19 13:58:00,
2013-07-19 09:14:00,81.8,70.0,30.07,SSE,158,0.0,-999.0,68,-99.99,,,0.00,464,weatherlink.com 1.10,2013-07-19 14:14:00,
2013-07-19 09:29:00,82.8,71.0,30.07,SSE,158,0.0,-999.0,67,-99.99,,,0.00,499,weatherlink.com 1.10,2013-07-19 14:29:00,
2013-07-19 09:45:00,85.3,71.0,30.07,SSE,158,0.0,-999.0,62,-99.99,,,0.00,436,weatherlink.com 1.10,2013-07-19 14:45:00,
2013-07-19 09:59:00,85.8,69.0,30.06,SSE,158,0.0,-999.0,57,-99.99,,,0.00,585,weatherlink.com 1.10,2013-07-19 14:59:00,
2013-07-19 10:15:00,87.4,71.0,30.06,SSE,158,0.0,-999.0,58,-99.99,,,0.00,628,weatherlink.com 1.10,2013-07-19 15:15:00,
2013-07-19 10:29:00,88.6,71.0,30.06,SSE,158,0.0,-999.0,56,-99.99,,,0.00,663,weatherlink.com 1.10,2013-07-19 15:29:00,
2013-07-19 10:45:00,89.3,70.0,30.06,SSE,158,0.0,-999.0,54,-99.99,,,0.00,664,weatherlink.com 1.10,2013-07-19 15:45:00,
2013-07-19 11:00:00,89.9,70.0,30.05,SSE,158,0.0,-999.0,53,-99.99,,,0.00,666,weatherlink.com 1.10,2013-07-19 16:00:00,
2013-07-19 11:15:00,91.0,70.0,30.05,SSE,158,0.0,-999.0,51,-99.99,,,0.00,770,weatherlink.com 1.10,2013-07-19 16:15:00,
2013-07-19 11:30:00,91.1,69.0,30.05,SSE,158,0.0,-999.0,49,-99.99,,,0.00,800,weatherlink.com 1.10,2013-07-19 16:30:00,
2013-07-19 11:45:00,90.9,70.0,30.05,SSE,158,0.0,-999.0,51,-99.99,,,0.00,817,weatherlink.com 1.10,2013-07-19 16:45:00,
2013-07-19 12:00:00,90.9,69.0,30.05,SSE,158,0.0,-999.0,49,-99.99,,,0.00,835,weatherlink.com 1.10,2013-07-19 17:00:00,
2013-07-19 12:15:00,91.0,70.0,30.04,SSE,158,4.0,-999.0,51,-99.99,,,0.00,858,weatherlink.com 1.10,2013-07-19 17:15:00,
2013-07-19 12:30:00,91.9,69.0,30.03,SSE,158,7.0,-999.0,47,-99.99,,,0.00,865,weatherlink.com 1.10,2013-07-19 17:30:00,
2013-07-19 12:45:00,92.9,70.0,30.03,SSE,158,1.0,-999.0,48,-99.99,,,0.00,898,weatherlink.com 1.10,2013-07-19 17:45:00,
2013-07-19 13:00:00,92.7,70.0,30.01,SSE,158,0.0,-999.0,47,-99.99,,,0.00,888,weatherlink.com 1.10,2013-07-19 18:00:00,
2013-07-19 13:15:00,92.5,69.0,30.00,SSE,158,0.0,-999.0,47,-99.99,,,0.00,902,weatherlink.com 1.10,2013-07-19 18:15:00,
2013-07-19 13:30:00,92.7,68.0,30.00,SSE,158,1.0,-999.0,45,-99.99,,,0.00,893,weatherlink.com 1.10,2013-07-19 18:30:00,
2013-07-19 13:45:00,95.1,69.0,29.99,SSE,158,0.0,-999.0,42,-99.99,,,0.00,896,weatherlink.com 1.10,2013-07-19 18:45:00,
2013-07-19 14:00:00,96.7,69.0,29.98,SSE,158,2.0,-999.0,41,-99.99,,,0.00,884,weatherlink.com 1.10,2013-07-19 19:00:00,
2013-07-19 14:15:00,97.0,70.0,29.96,SSE,158,0.0,-999.0,41,-99.99,,,0.00,874,weatherlink.com 1.10,2013-07-19 19:15:00,
2013-07-19 14:30:00,96.6,69.0,29.96,SE,132,0.0,-999.0,41,-99.99,,,0.00,863,weatherlink.com 1.10,2013-07-19 19:30:00,
2013-07-19 14:45:00,97.7,70.0,29.95,SE,126,4.0,-999.0,40,-99.99,,,0.00,856,weatherlink.com 1.10,2013-07-19 19:45:00,
2013-07-19 15:00:00,97.4,69.0,29.94,SE,126,0.0,-999.0,40,-99.99,,,0.00,870,weatherlink.com 1.10,2013-07-19 20:00:00,
2013-07-19 15:15:00,98.7,69.0,29.94,SE,124,0.0,-999.0,38,-99.99,,,0.00,879,weatherlink.com 1.10,2013-07-19 20:15:00,
2013-07-19 15:30:00,97.2,69.0,29.94,East,96,0.0,-999.0,40,-99.99,,,0.00,837,weatherlink.com 1.10,2013-07-19 20:30:00,
2013-07-19 15:45:00,97.8,70.0,29.94,ESE,113,0.0,-999.0,40,-99.99,,,0.00,188,weatherlink.com 1.10,2013-07-19 20:45:00,
2013-07-19 16:01:00,96.4,69.0,29.94,ESE,115,0.0,-999.0,41,-99.99,,,0.00,167,weatherlink.com 1.10,2013-07-19 21:01:00,
2013-07-19 16:16:00,85.7,70.0,29.96,NNW,333,18.0,-999.0,59,-99.99,,,0.00,65,weatherlink.com 1.10,2013-07-19 21:16:00,
2013-07-19 16:31:00,80.2,72.0,29.99,West,276,0.0,-999.0,75,-99.99,,,0.00,25,weatherlink.com 1.10,2013-07-19 21:31:00,
2013-07-19 16:46:00,77.5,73.0,29.98,SSW,192,5.0,-999.0,86,-99.99,,,0.21,46,weatherlink.com 1.10,2013-07-19 21:46:00,
2013-07-19 17:01:00,75.7,73.0,29.99,NNE,31,8.0,-999.0,90,-99.99,,,0.36,58,weatherlink.com 1.10,2013-07-19 22:01:00,
2013-07-19 17:16:00,74.4,72.0,29.98,NE,34,7.0,-999.0,91,-99.99,,,0.46,47,weatherlink.com 1.10,2013-07-19 22:16:00,
2013-07-19 17:31:00,73.3,71.0,29.99,NNE,13,2.0,-999.0,91,-99.99,,,0.51,49,weatherlink.com 1.10,2013-07-19 22:31:00,
2013-07-19 17:46:00,72.4,70.0,29.98,East,86,3.0,-999.0,91,-99.99,,,0.53,37,weatherlink.com 1.10,2013-07-19 22:46:00,
2013-07-19 18:01:00,72.1,70.0,29.97,East,87,2.0,-999.0,93,-99.99,,,0.55,18,weatherlink.com 1.10,2013-07-19 23:01:00,
2013-07-19 18:16:00,72.4,70.0,29.97,SW,215,1.0,-999.0,93,-99.99,,,0.56,11,weatherlink.com 1.10,2013-07-19 23:16:00,
2013-07-19 18:31:00,73.5,72.0,29.97,SW,225,2.0,-999.0,94,-99.99,,,0.56,7,weatherlink.com 1.10,2013-07-19 23:31:00,
2013-07-19 18:46:00,74.0,72.0,29.96,SW,225,2.0,-999.0,94,-99.99,,,0.57,7,weatherlink.com 1.10,2013-07-19 23:46:00,
2013-07-19 19:01:00,73.9,72.0,29.95,SW,228,2.0,-999.0,93,-99.99,,,0.58,7,weatherlink.com 1.10,2013-07-20 00:01:00,
2013-07-19 19:16:00,73.5,71.0,29.96,SW,228,0.0,-999.0,93,-99.99,,,0.59,9,weatherlink.com 1.10,2013-07-20 00:16:00,
2013-07-19 19:31:00,73.5,71.0,29.96,SW,228,0.0,-999.0,93,-99.99,,,0.61,9,weatherlink.com 1.10,2013-07-20 00:31:00,
2013-07-19 19:46:00,73.2,71.0,29.96,SW,228,0.0,-999.0,94,-99.99,,,0.63,9,weatherlink.com 1.10,2013-07-20 00:46:00,
2013-07-19 20:01:00,73.3,72.0,29.96,SW,228,0.0,-999.0,94,-99.99,,,0.64,5,weatherlink.com 1.10,2013-07-20 01:01:00,
2013-07-19 20:16:00,73.5,72.0,29.95,SW,228,0.0,-999.0,95,-99.99,,,0.64,7,weatherlink.com 1.10,2013-07-20 01:16:00,
2013-07-19 20:31:00,73.3,72.0,29.95,SW,228,0.0,-999.0,94,-99.99,,,0.64,0,weatherlink.com 1.10,2013-07-20 01:31:00,
2013-07-19 20:46:00,73.1,72.0,29.96,SW,228,0.0,-999.0,95,-99.99,,,0.64,0,weatherlink.com 1.10,2013-07-20 01:46:00,
2013-07-19 21:01:00,72.9,71.0,29.96,SW,228,0.0,-999.0,95,-99.99,,,0.64,0,weatherlink.com 1.10,2013-07-20 02:01:00,
2013-07-19 21:16:00,72.8,71.0,29.97,SW,228,0.0,-999.0,95,-99.99,,,0.64,0,weatherlink.com 1.10,2013-07-20 02:16:00,
2013-07-19 21:31:00,72.4,71.0,29.98,SW,228,0.0,-999.0,95,-99.99,,,0.64,0,weatherlink.com 1.10,2013-07-20 02:31:00,
2013-07-19 21:46:00,72.2,71.0,29.99,SW,228,0.0,-999.0,95,-99.99,,,0.64,0,weatherlink.com 1.10,2013-07-20 02:46:00,
2013-07-19 22:01:00,72.0,71.0,29.98,SW,228,0.0,-999.0,95,-99.99,,,0.64,0,weatherlink.com 1.10,2013-07-20 03:01:00,
2013-07-19 22:16:00,71.9,71.0,29.99,SW,228,0.0,-999.0,95,-99.99,,,0.64,0,weatherlink.com 1.10,2013-07-20 03:16:00,
2013-07-19 22:31:00,71.6,70.0,30.00,SW,228,0.0,-999.0,95,-99.99,,,0.64,0,weatherlink.com 1.10,2013-07-20 03:31:00,
2013-07-19 22:46:00,71.4,70.0,30.00,SW,228,0.0,-999.0,95,-99.99,,,0.64,0,weatherlink.com 1.10,2013-07-20 03:46:00,
2013-07-19 23:01:00,71.3,70.0,29.99,SW,228,0.0,-999.0,95,-99.99,,,0.64,0,weatherlink.com 1.10,2013-07-20 04:01:00,
2013-07-19 23:16:00,71.2,70.0,29.98,SW,228,0.0,-999.0,96,-99.99,,,0.64,0,weatherlink.com 1.10,2013-07-20 04:16:00,
2013-07-19 23:31:00,71.2,70.0,29.98,SW,228,0.0,-999.0,96,-99.99,,,0.64,0,weatherlink.com 1.10,2013-07-20 04:31:00,
2013-07-19 23:46:00,71.3,70.0,29.98,SW,228,0.0,-999.0,96,-99.99,,,0.64,0,weatherlink.com 1.10,2013-07-20 04:46:00,